Time,TemperatureF,DewpointF,PressureIn,WindDirection,WindDirectionDegrees,WindSpeedMPH,WindSpeedGustMPH,Humidity,HourlyPrecipIn,Conditions,Clouds,dailyrainin,SoftwareType,DateUTC
2013-01-20 00:02:00,40.0,35.0,29.94,NW,308,3.0,8.0,81,62.75,,,-99.99,,2013-01-20 06:02:00,
2013-01-20 00:12:00,40.0,35.0,29.94,NW,308,3.0,8.0,81,62.75,,,-99.99,,2013-01-20 06:12:00,
2013-01-20 00:22:00,40.0,34.0,29.94,NNW,336,5.0,13.0,80,62.75,,,-99.99,,2013-01-20 06:22:00,
2013-01-20 00:33:00,39.0,34.0,29.95,North,8,4.0,9.0,81,62.75,,,-99.99,,2013-01-20 06:33:00,
2013-01-20 00:42:00,39.0,34.0,29.95,North,8,4.0,9.0,81,62.75,,,-99.99,,2013-01-20 06:42:00,
2013-01-20 00:53:00,39.0,34.0,29.96,NNW,336,4.0,10.0,83,62.75,,,-99.99,,2013-01-20 06:53:00,
2013-01-20 01:02:00,38.0,33.0,29.97,NNW,338,7.0,18.0,82,62.75,,,-99.99,,2013-01-20 07:02:00,
2013-01-20 01:12:00,38.0,33.0,29.97,NNW,338,7.0,18.0,82,62.75,,,-99.99,,2013-01-20 07:12:00,
2013-01-20 01:22:00,36.0,31.0,29.98,NNW,342,6.0,19.0,81,62.75,,,-99.99,,2013-01-20 07:22:00,
2013-01-20 01:32:00,34.0,28.0,30.00,North,11,9.0,20.0,78,62.75,,,-99.99,,2013-01-20 07:32:00,
2013-01-20 01:42:00,34.0,28.0,30.00,North,11,9.0,20.0,78,62.75,,,-99.99,,2013-01-20 07:42:00,
2013-01-20 01:52:00,32.0,26.0,30.01,NNE,25,7.0,18.0,77,62.75,,,-99.99,,2013-01-20 07:52:00,
2013-01-20 02:02:00,32.0,25.0,30.03,NNW,340,6.0,15.0,76,62.75,,,-99.99,,2013-01-20 08:02:00,
2013-01-20 02:12:00,32.0,25.0,30.03,NNW,340,6.0,15.0,76,62.75,,,-99.99,,2013-01-20 08:12:00,
2013-01-20 02:22:00,31.0,23.0,30.04,North,359,10.0,23.0,71,62.75,,,-99.99,,2013-01-20 08:22:00,
2013-01-20 02:32:00,30.0,22.0,30.06,NNW,339,5.0,14.0,72,62.75,,,-99.99,,2013-01-20 08:32:00,
2013-01-20 02:42:00,30.0,22.0,30.06,NNW,339,5.0,14.0,72,62.75,,,-99.99,,2013-01-20 08:42:00,
2013-01-20 02:52:00,30.0,23.0,30.06,NNE,14,5.0,13.0,74,62.75,,,-99.99,,2013-01-20 08:52:00,
2013-01-20 03:02:00,29.0,19.0,30.08,NNW,328,7.0,14.0,67,62.75,,,-99.99,,2013-01-20 09:02:00,
2013-01-20 03:12:00,29.0,19.0,30.08,NNW,328,7.0,14.0,67,62.75,,,-99.99,,2013-01-20 09:12:00,
2013-01-20 03:22:00,28.0,18.0,30.08,NNW,347,6.0,13.0,67,62.75,,,-99.99,,2013-01-20 09:22:00,
2013-01-20 03:33:00,27.0,18.0,30.09,North,3,5.0,18.0,67,62.75,,,-99.99,,2013-01-20 09:33:00,
2013-01-20 03:42:00,27.0,18.0,30.09,North,3,5.0,18.0,67,62.75,,,-99.99,,2013-01-20 09:42:00,
2013-01-20 03:52:00,26.0,19.0,30.10,North,356,3.0,11.0,73,62.75,,,-99.99,,2013-01-20 09:52:00,
2013-01-20 04:02:00,26.0,18.0,30.10,NNW,347,3.0,12.0,72,62.75,,,-99.99,,2013-01-20 10:02:00,
2013-01-20 04:12:00,26.0,18.0,30.10,NNW,347,3.0,12.0,72,62.75,,,-99.99,,2013-01-20 10:12:00,
2013-01-20 04:22:00,25.0,16.0,30.10,North,6,5.0,14.0,67,62.75,,,-99.99,,2013-01-20 10:22:00,
2013-01-20 04:32:00,25.0,15.0,30.11,NNW,347,7.0,14.0,66,62.75,,,-99.99,,2013-01-20 10:32:00,
2013-01-20 04:42:00,25.0,15.0,30.11,NNW,347,7.0,14.0,66,62.75,,,-99.99,,2013-01-20 10:42:00,
2013-01-20 04:52:00,24.0,16.0,30.11,North,8,5.0,12.0,70,62.75,,,-99.99,,2013-01-20 10:52:00,
2013-01-20 05:02:00,24.0,15.0,30.13,North,1,7.0,19.0,69,62.75,,,-99.99,,2013-01-20 11:02:00,
2013-01-20 05:12:00,23.0,14.0,30.14,North,349,7.0,15.0,67,62.75,,,-99.99,,2013-01-20 11:12:00,
2013-01-20 05:22:00,23.0,14.0,30.14,North,349,7.0,15.0,67,62.75,,,-99.99,,2013-01-20 11:22:00,
2013-01-20 05:32:00,22.0,15.0,30.15,North,11,5.0,13.0,73,62.75,,,-99.99,,2013-01-20 11:32:00,
2013-01-20 05:42:00,22.0,15.0,30.15,North,11,5.0,13.0,73,62.75,,,-99.99,,2013-01-20 11:42:00,
2013-01-20 05:53:00,22.0,15.0,30.16,NNW,333,6.0,15.0,74,62.75,,,-99.99,,2013-01-20 11:53:00,
2013-01-20 06:03:00,22.0,15.0,30.17,NNW,328,5.0,12.0,75,62.75,,,-99.99,,2013-01-20 12:03:00,
2013-01-20 06:12:00,22.0,15.0,30.17,NNW,328,5.0,12.0,75,62.75,,,-99.99,,2013-01-20 12:12:00,
2013-01-20 06:23:00,21.0,14.0,30.18,NNE,14,7.0,18.0,73,62.75,,,-99.99,,2013-01-20 12:23:00,
2013-01-20 06:33:00,20.0,13.0,30.18,NNW,347,7.0,15.0,75,62.75,,,-99.99,,2013-01-20 12:33:00,
2013-01-20 06:43:00,20.0,13.0,30.18,NNW,347,7.0,15.0,75,62.75,,,-99.99,,2013-01-20 12:43:00,
2013-01-20 06:53:00,20.0,14.0,30.18,North,11,5.0,11.0,78,62.75,,,-99.99,,2013-01-20 12:53:00,
2013-01-20 07:02:00,20.0,15.0,30.18,North,3,5.0,11.0,80,62.75,,,-99.99,,2013-01-20 13:02:00,
2013-01-20 07:12:00,20.0,15.0,30.18,North,3,5.0,11.0,80,62.75,,,-99.99,,2013-01-20 13:12:00,
2013-01-20 07:23:00,19.0,14.0,30.19,NNE,20,5.0,12.0,80,62.75,,,-99.99,,2013-01-20 13:23:00,
2013-01-20 07:33:00,19.0,14.0,30.19,North,10,7.0,14.0,79,62.75,,,-99.99,,2013-01-20 13:33:00,
2013-01-20 07:42:00,19.0,14.0,30.19,North,10,7.0,14.0,79,62.75,,,-99.99,,2013-01-20 13:42:00,
2013-01-20 07:53:00,19.0,14.0,30.21,North,7,5.0,12.0,80,62.75,,,-99.99,,2013-01-20 13:53:00,
2013-01-20 08:02:00,19.0,14.0,30.22,NNE,27,6.0,12.0,79,62.75,,,-99.99,,2013-01-20 14:02:00,
2013-01-20 08:12:00,19.0,14.0,30.22,NNE,27,6.0,12.0,79,62.75,,,-99.99,,2013-01-20 14:12:00,
2013-01-20 08:22:00,19.0,14.0,30.23,North,359,5.0,11.0,79,62.75,,,-99.99,,2013-01-20 14:22:00,
2013-01-20 08:32:00,19.0,13.0,30.24,North,4,5.0,10.0,78,62.75,,,-99.99,,2013-01-20 14:32:00,
2013-01-20 08:42:00,19.0,13.0,30.24,North,4,5.0,10.0,78,62.75,,,-99.99,,2013-01-20 14:42:00,
2013-01-20 08:53:00,20.0,15.0,30.25,North,0,3.0,9.0,81,62.75,,,-99.99,,2013-01-20 14:53:00,
2013-01-20 09:03:00,19.0,13.0,30.25,NNE,17,5.0,11.0,77,62.75,,,-99.99,,2013-01-20 15:03:00,
2013-01-20 09:12:00,19.0,13.0,30.25,NNE,17,5.0,11.0,77,62.75,,,-99.99,,2013-01-20 15:12:00,
2013-01-20 09:23:00,19.0,13.0,30.26,NNE,23,6.0,13.0,76,62.75,,,-99.99,,2013-01-20 15:23:00,
2013-01-20 09:33:00,20.0,13.0,30.26,NNW,340,5.0,10.0,73,62.75,,,-99.99,,2013-01-20 15:33:00,
2013-01-20 09:42:00,20.0,13.0,30.26,NNW,340,5.0,10.0,73,62.75,,,-99.99,,2013-01-20 15:42:00,
2013-01-20 09:53:00,20.0,13.0,30.26,NNW,330,2.0,10.0,74,62.75,,,-99.99,,2013-01-20 15:53:00,
2013-01-20 10:02:00,21.0,13.0,30.28,North,4,2.0,7.0,72,62.75,,,-99.99,,2013-01-20 16:02:00,
2013-01-20 10:12:00,21.0,13.0,30.28,North,4,2.0,7.0,72,62.75,,,-99.99,,2013-01-20 16:12:00,
2013-01-20 10:23:00,21.0,14.0,30.28,North,359,1.0,7.0,73,62.75,,,-99.99,,2013-01-20 16:23:00,
2013-01-20 10:33:00,21.0,14.0,30.29,NNE,25,1.0,7.0,75,62.75,,,-99.99,,2013-01-20 16:33:00,
2013-01-20 10:42:00,21.0,14.0,30.29,NNE,25,1.0,7.0,75,62.75,,,-99.99,,2013-01-20 16:42:00,
2013-01-20 10:52:00,21.0,14.0,30.27,North,3,1.0,7.0,75,62.75,,,-99.99,,2013-01-20 16:52:00,
2013-01-20 11:03:00,22.0,15.0,30.27,North,7,0.0,4.0,74,62.75,,,-99.99,,2013-01-20 17:03:00,
2013-01-20 11:12:00,22.0,15.0,30.27,North,7,0.0,4.0,74,62.75,,,-99.99,,2013-01-20 17:12:00,
2013-01-20 11:22:00,22.0,14.0,30.27,WNW,300,2.0,9.0,71,62.75,,,-99.99,,2013-01-20 17:22:00,
2013-01-20 11:33:00,23.0,15.0,30.25,North,356,1.0,6.0,71,62.75,,,-99.99,,2013-01-20 17:33:00,
2013-01-20 11:42:00,23.0,15.0,30.25,North,356,1.0,6.0,71,62.75,,,-99.99,,2013-01-20 17:42:00,
2013-01-20 11:53:00,23.0,14.0,30.24,North,356,2.0,6.0,69,62.75,,,-99.99,,2013-01-20 17:53:00,
2013-01-20 12:02:00,24.0,16.0,30.23,North,356,1.0,8.0,70,62.75,,,-99.99,,2013-01-20 18:02:00,
2013-01-20 12:12:00,23.0,14.0,30.22,NNE,14,1.0,5.0,68,62.75,,,-99.99,,2013-01-20 18:12:00,
2013-01-20 12:23:00,23.0,14.0,30.22,NNE,14,1.0,5.0,68,62.75,,,-99.99,,2013-01-20 18:23:00,
2013-01-20 12:33:00,24.0,15.0,30.22,NE,48,0.0,5.0,68,62.75,,,-99.99,,2013-01-20 18:33:00,
2013-01-20 12:42:00,24.0,15.0,30.22,NE,48,0.0,5.0,68,62.75,,,-99.99,,2013-01-20 18:42:00,
2013-01-20 12:53:00,24.0,16.0,30.22,NNE,15,2.0,10.0,70,62.75,,,-99.99,,2013-01-20 18:53:00,
2013-01-20 13:02:00,25.0,16.0,30.21,NNE,28,2.0,8.0,68,62.75,,,-99.99,,2013-01-20 19:02:00,
2013-01-20 13:12:00,25.0,16.0,30.21,NNE,28,2.0,8.0,68,62.75,,,-99.99,,2013-01-20 19:12:00,
2013-01-20 13:22:00,25.0,16.0,30.22,NNE,21,4.0,9.0,67,62.75,,,-99.99,,2013-01-20 19:22:00,
2013-01-20 13:33:00,25.0,16.0,30.21,North,6,2.0,7.0,67,62.75,,,-99.99,,2013-01-20 19:33:00,
2013-01-20 13:42:00,25.0,16.0,30.21,North,6,2.0,7.0,67,62.75,,,-99.99,,2013-01-20 19:42:00,
2013-01-20 13:52:00,25.0,15.0,30.21,North,353,3.0,9.0,66,62.75,,,-99.99,,2013-01-20 19:52:00,
2013-01-20 14:03:00,25.0,15.0,30.21,North,3,3.0,9.0,65,62.75,,,-99.99,,2013-01-20 20:03:00,
2013-01-20 14:12:00,25.0,15.0,30.21,North,3,3.0,9.0,65,62.75,,,-99.99,,2013-01-20 20:12:00,
2013-01-20 14:22:00,24.0,15.0,30.21,NNW,347,6.0,11.0,68,62.75,,,-99.99,,2013-01-20 20:22:00,
2013-01-20 14:33:00,24.0,15.0,30.22,NNW,347,3.0,10.0,67,62.75,,,-99.99,,2013-01-20 20:33:00,
2013-01-20 14:42:00,24.0,15.0,30.22,NNW,347,3.0,10.0,67,62.75,,,-99.99,,2013-01-20 20:42:00,
2013-01-20 14:53:00,25.0,17.0,30.22,NNE,23,1.0,6.0,70,62.75,,,-99.99,,2013-01-20 20:53:00,
2013-01-20 15:03:00,24.0,15.0,30.22,North,8,3.0,9.0,69,62.75,,,-99.99,,2013-01-20 21:03:00,
2013-01-20 15:13:00,24.0,15.0,30.22,North,8,3.0,9.0,69,62.75,,,-99.99,,2013-01-20 21:13:00,
2013-01-20 15:23:00,24.0,15.0,30.22,North,359,1.0,6.0,68,62.75,,,-99.99,,2013-01-20 21:23:00,
2013-01-20 15:33:00,24.0,16.0,30.21,North,354,1.0,8.0,70,62.75,,,-99.99,,2013-01-20 21:33:00,
2013-01-20 15:43:00,24.0,16.0,30.21,North,354,1.0,8.0,70,62.75,,,-99.99,,2013-01-20 21:43:00,
2013-01-20 15:53:00,24.0,15.0,30.22,North,8,2.0,8.0,69,62.75,,,-99.99,,2013-01-20 21:53:00,
2013-01-20 16:03:00,24.0,15.0,30.22,North,352,0.0,3.0,68,62.75,,,-99.99,,2013-01-20 22:03:00,
2013-01-20 16:12:00,24.0,15.0,30.22,North,352,0.0,3.0,68,62.75,,,-99.99,,2013-01-20 22:12:00,
2013-01-20 16:22:00,24.0,15.0,30.22,NW,304,1.0,7.0,69,62.75,,,-99.99,,2013-01-20 22:22:00,
2013-01-20 16:33:00,24.0,16.0,30.22,NW,314,0.0,3.0,70,62.75,,,-99.99,,2013-01-20 22:33:00,
2013-01-20 16:43:00,24.0,16.0,30.22,NW,314,0.0,3.0,70,62.75,,,-99.99,,2013-01-20 22:43:00,
2013-01-20 16:53:00,24.0,15.0,30.23,North,0,0.0,0.0,69,62.75,,,-99.99,,2013-01-20 22:53:00,
2013-01-20 17:03:00,24.0,16.0,30.23,North,11,0.0,4.0,70,62.75,,,-99.99,,2013-01-20 23:03:00,
2013-01-20 17:13:00,24.0,16.0,30.23,North,11,0.0,4.0,70,62.75,,,-99.99,,2013-01-20 23:13:00,
2013-01-20 17:23:00,24.0,16.0,30.23,NNE,23,1.0,6.0,70,62.75,,,-99.99,,2013-01-20 23:23:00,
2013-01-20 17:33:00,24.0,16.0,30.22,North,6,1.0,8.0,70,62.75,,,-99.99,,2013-01-20 23:33:00,
2013-01-20 17:42:00,24.0,16.0,30.22,North,6,1.0,8.0,70,62.75,,,-99.99,,2013-01-20 23:42:00,
2013-01-20 17:53:00,23.0,16.0,30.22,North,356,1.0,5.0,73,62.75,,,-99.99,,2013-01-20 23:53:00,
2013-01-20 18:03:00,23.0,16.0,30.22,North,359,1.0,5.0,73,62.75,,,-99.99,,2013-01-21 00:03:00,
2013-01-20 18:13:00,23.0,16.0,30.22,North,359,1.0,5.0,73,62.75,,,-99.99,,2013-01-21 00:13:00,
2013-01-20 18:22:00,23.0,15.0,30.22,NNW,347,0.0,5.0,72,62.75,,,-99.99,,2013-01-21 00:22:00,
2013-01-20 18:33:00,23.0,15.0,30.22,North,0,0.0,0.0,72,62.75,,,-99.99,,2013-01-21 00:33:00,
2013-01-20 18:43:00,23.0,15.0,30.22,North,0,0.0,0.0,72,62.75,,,-99.99,,2013-01-21 00:43:00,
2013-01-20 18:53:00,22.0,14.0,30.22,NNW,340,0.0,4.0,72,62.75,,,-99.99,,2013-01-21 00:53:00,
2013-01-20 19:03:00,22.0,14.0,30.22,North,8,2.0,8.0,71,62.75,,,-99.99,,2013-01-21 01:03:00,
2013-01-20 19:12:00,22.0,14.0,30.22,North,8,2.0,8.0,71,62.75,,,-99.99,,2013-01-21 01:12:00,
2013-01-20 19:23:00,22.0,14.0,30.22,NNE,24,2.0,7.0,71,62.75,,,-99.99,,2013-01-21 01:23:00,
2013-01-20 19:32:00,22.0,14.0,30.22,North,350,3.0,9.0,71,62.75,,,-99.99,,2013-01-21 01:32:00,
2013-01-20 19:43:00,22.0,14.0,30.22,North,350,3.0,9.0,71,62.75,,,-99.99,,2013-01-21 01:43:00,
2013-01-20 19:53:00,22.0,15.0,30.22,North,359,3.0,8.0,73,62.75,,,-99.99,,2013-01-21 01:53:00,
2013-01-20 20:03:00,22.0,15.0,30.21,North,359,2.0,7.0,74,62.75,,,-99.99,,2013-01-21 02:03:00,
2013-01-20 20:12:00,22.0,15.0,30.21,North,359,2.0,7.0,74,62.75,,,-99.99,,2013-01-21 02:12:00,
2013-01-20 20:23:00,22.0,15.0,30.22,North,7,2.0,7.0,75,62.75,,,-99.99,,2013-01-21 02:23:00,
2013-01-20 20:33:00,21.0,15.0,30.21,North,10,1.0,5.0,76,62.75,,,-99.99,,2013-01-21 02:33:00,
2013-01-20 20:43:00,21.0,15.0,30.21,North,10,1.0,5.0,76,62.75,,,-99.99,,2013-01-21 02:43:00,
2013-01-20 20:53:00,21.0,15.0,30.21,North,356,3.0,8.0,76,62.75,,,-99.99,,2013-01-21 02:53:00,
2013-01-20 21:03:00,21.0,15.0,30.20,NNW,346,1.0,8.0,76,62.75,,,-99.99,,2013-01-21 03:03:00,
2013-01-20 21:12:00,21.0,15.0,30.20,NNW,346,1.0,8.0,76,62.75,,,-99.99,,2013-01-21 03:12:00,
2013-01-20 21:23:00,21.0,15.0,30.20,NNE,18,1.0,5.0,78,62.75,,,-99.99,,2013-01-21 03:23:00,
2013-01-20 21:33:00,21.0,16.0,30.20,North,359,1.0,6.0,79,62.75,,,-99.99,,2013-01-21 03:33:00,
2013-01-20 21:43:00,21.0,16.0,30.20,North,359,1.0,6.0,79,62.75,,,-99.99,,2013-01-21 03:43:00,
2013-01-20 21:53:00,21.0,16.0,30.20,North,3,3.0,7.0,79,62.75,,,-99.99,,2013-01-21 03:53:00,
2013-01-20 22:03:00,21.0,16.0,30.21,NNE,18,1.0,5.0,81,62.75,,,-99.99,,2013-01-21 04:03:00,
2013-01-20 22:12:00,21.0,16.0,30.21,NNE,18,1.0,5.0,81,62.75,,,-99.99,,2013-01-21 04:12:00,
2013-01-20 22:23:00,21.0,16.0,30.20,NNE,27,1.0,6.0,79,62.75,,,-99.99,,2013-01-21 04:23:00,
2013-01-20 22:32:00,21.0,15.0,30.20,NNW,332,1.0,6.0,78,62.75,,,-99.99,,2013-01-21 04:32:00,
2013-01-20 22:42:00,21.0,15.0,30.20,NNW,332,1.0,6.0,78,62.75,,,-99.99,,2013-01-21 04:42:00,
2013-01-20 22:53:00,21.0,16.0,30.19,NW,314,0.0,3.0,80,62.75,,,-99.99,,2013-01-21 04:53:00,
2013-01-20 23:03:00,20.0,15.0,30.19,NNW,347,1.0,5.0,82,62.75,,,-99.99,,2013-01-21 05:03:00,
2013-01-20 23:12:00,20.0,15.0,30.19,NNW,347,1.0,5.0,82,62.75,,,-99.99,,2013-01-21 05:12:00,
2013-01-20 23:22:00,20.0,16.0,30.19,NNW,342,0.0,5.0,83,62.75,,,-99.99,,2013-01-21 05:22:00,
2013-01-20 23:33:00,20.0,15.0,30.17,NNW,346,1.0,6.0,82,62.75,,,-99.99,,2013-01-21 05:33:00,
2013-01-20 23:42:00,20.0,15.0,30.17,NNW,346,1.0,6.0,82,62.75,,,-99.99,,2013-01-21 05:42:00,
2013-01-20 23:53:00,20.0,15.0,30.17,WNW,291,1.0,5.0,82,62.75,,,-99.99,,2013-01-21 05:53:00,